Regional Weather Roundup
Issued by NWS

Home | Current Version | Previous Version | Text Only | Print | Product List | Glossary Off
Versions: 1 2 3 4 5 6 7 8 9 10 11 12 13 14 15 16 17 18 19 20 21 22 23 24 25 26 27 28 29 30 31 32 33 34 35 36 37 38 39 40 41 42 43 44 45 46 47 48 49 50

000
ASUS43 KMPX 271101
RWRMN
WEATHER ROUNDUP FOR MINNESOTA
NATIONAL WEATHER SERVICE TWIN CITIES/CHANHASSEN MN
500 AM CST THU NOV 27 2014


NOTE: "FAIR" INDICATES FEW OR NO CLOUDS BELOW 12,000 FEET WITH NO
SIGNIFICANT WEATHER AND/OR OBSTRUCTIONS TO VISIBILITY. N/A MEANS
CURRENT SKY AND/OR WEATHER CONDITIONS ARE NOT AVAILABLE.

MNZ060>063-068>070-271200-
   Twin Cities Metro

CITY           SKY/WX    TMP DP  RH WIND       PRES   REMARKS
TWIN CITIES    CLEAR      1  -5  75 N9        30.48R WCI -14
ST PAUL        CLEAR      2  -4  76 NW10      30.50R WCI -14
CRYSTAL        CLEAR      1  -6  72 NW9       30.47S WCI -14
EDEN PRAIRIE   CLEAR      0  -7  72 N9        30.47R WCI -15
$$
MNZ001>005-007-008-013>017-022>024-027-028-271200-
   Northwest Minnesota

CITY           SKY/WX    TMP DP  RH WIND       PRES   REMARKS
THIEF RVR FALL MOCLDY   -13 -15  92 CALM      30.48F
CROOKSTON      PTCLDY   -15 -18  84 S3        30.54F
FOSSTON        MOCLDY   -20 -27  69 CALM      30.48F
DETROIT LAKES  MOCLDY    -9 -15  77 CALM      30.48S
PARK RAPIDS    PTCLDY   -15 -22  70 NW3       30.45S
MAHNOMEN       FAIR     -12 -17  80 CALM      30.49S
$$
MNZ006-009>011-018-025>026-271200-
   North Central Minnesota

CITY           SKY/WX    TMP DP  RH WIND       PRES   REMARKS
BAUDETTE       MOCLDY   -14 -19  79 W3        30.47R
INTL FALLS     PTCLDY   -16 -22  74 W3        30.45F
LONGVILLE      PTCLDY    -8 -11  84 CALM      30.46S
GRAND RAPIDS   PTCLDY    -9 -13  84 NW5       30.42S WCI -21
COOK           MOCLDY   -17 -20  83 CALM      30.43R
WALKER         FAIR     -14 -18  80 W5        30.46S WCI -26
$$
MNZ012-019>021-037-271200-
   Northeast Minnesota

CITY           SKY/WX    TMP DP  RH WIND       PRES   REMARKS
DULUTH         PTCLDY    -7 -13  75 NW7       30.39S WCI -21
HIBBING        PTCLDY    -8 -14  74 N6        30.42S WCI -21
GRAND MARAIS     N/A     -3 -13  62 N18G33    30.39R WCI -25
$$
MNZ029>031-032-039>041-046>048-054>057-064-271200-
   West Central Minnesota

CITY           SKY/WX    TMP DP  RH WIND       PRES   REMARKS
WHEATON        PTCLDY    -9 -13  84 W3        30.56S
ALEXANDRIA     PTCLDY    -5 -10  79 CALM      30.46F
WADENA         PTCLDY    -9 -15  77 CALM      30.46S
WILLMAR        FAIR      -8 -13  77 W5        30.50R WCI -19
$$
MNZ033>034-036-042>043-049>051-058-059-271200-
   Central Minnesota

CITY           SKY/WX    TMP DP  RH WIND       PRES   REMARKS
ST CLOUD       CLEAR     -3  -9  75 NW8       30.48S WCI -18
BRAINERD       PTCLDY    -7 -10  87 NW6       30.47S WCI -20
LITTLE FALLS   CLEAR     -6  -9  84 NW3       30.49S
MAPLE LAKE     PTCLDY    -1  -5  82 NW9       30.49S WCI -16
$$
MNZ037-044-045-052-053-271200-
   East Central Minnesota

CITY           SKY/WX    TMP DP  RH WIND       PRES   REMARKS
MORA           CLEAR     -4  -8  84 N3        30.49S
CAMBRIDGE      PTCLDY     0  -8  71 NW3       30.46S
CLOQUET        CLEAR     -6 -11  77 NW9       30.42S WCI -22
$$
MNZ071>073-080-081-089-090-097-098-271200-
   Southwest Minnesota

CITY           SKY/WX    TMP DP  RH WIND       PRES   REMARKS
MARSHALL       PTCLDY    -9 -17  70 NW9       30.50S WCI -27
REDWOOD FALLS  PTCLDY    -7 -12  79 NW8       30.52R WCI -23
WORTHINGTON    MOCLDY    -8 -11  84 NW6       30.46R WCI -21
SLAYTON        MOCLDY    -6 -10  81 NW8       30.46S WCI -21
$$
MNZ065>067-074>077-082>085-091>093-271200-
   South Central Minnesota

CITY           SKY/WX    TMP DP  RH WIND       PRES   REMARKS
MANKATO        PTCLDY    -8 -15  71 NW6       30.47R WCI -21
ST JAMES       CLOUDY    -8 -11  84 W13       30.50R WCI -28
FAIRMONT       PTCLDY    -6  -9  84 NW13      30.46R WCI -25
OWATONNA       PTCLDY    -4  -9  77 W8        30.43R WCI -19
$$
MNZ078>079-086>088-094>096-271200-
   Southeast Minnesota

CITY           SKY/WX    TMP DP  RH WIND       PRES   REMARKS
ROCHESTER      CLEAR      2  -5  72 NW10      30.39R WCI -14
WINONA         CLEAR     14   9  79 NW14      30.41R WCI  -1
AUSTIN         PTCLDY     1  -6  71 NW9       30.40R WCI -14
PRESTON        CLEAR      7   3  82 N6        30.37R WCI  -3
$$
ABBREVIATIONS USED IN REMARKS
   TC - TEMPERATURES IN CELSIUS
  WCI - WIND CHILL INDEX
   HX - HEAT INDEX
  VSB - VISIBILITY
$$



USA.gov is the U.S. government's official web portal to all federal, state and local government web resources and services.